New Ulm, MN

12:02 AM CST on December 08, 2019 (GMT -0600)
New Ulm Municipal

Weather History for KULM - October, 2019

Change the Weather History Date:

Thursday, October 3, 2019

  Actual Average Record
Temperature  
Mean Temperature 45 °F -  
Max Temperature 48 °F 68 °F 91 °F (1953)
Min Temperature 42 °F 43 °F 26 °F (1989)
Degree Days  
Heating Degree Days 20    
Moisture  
Dew Point 40 °F    
Average Humidity 83    
Maximum Humidity 100    
Minimum Humidity 71    
Precipitation  
Precipitation 0.00 in - - ()
Sea Level Pressure  
Sea Level Pressure 30.23 in    
Wind  
Wind Speed 10 mph ()    
Max Wind Speed 20 mph    
Max Gust Speed 23 mph    
Visibility 9.3 miles    
Events Rain    
Averages and records for this station are not official NWS values.
T = Trace of Precipitation, MM = Missing Value Source: Averaged Metar Reports

Daily Weather History Graph

Daily Weather History Graph

Search for Another Location

Airport or City:

Astronomy

Oct. 03, 2019 Rise Set
Actual Time 7:17 AM CDT 6:55 PM CDT
Civil Twilight 6:49 AM CDT 7:24 PM CDT
Nautical Twilight 6:15 AM CDT 7:57 PM CDT
Astronomical Twilight 5:41 AM CDT 8:31 PM CDT
Moon 1:01 PM CDT (10/3) 10:23 PM CDT (10/3)
Length of Visible Light 12h 35m
Length of Day
11h 37m
Waxing Crescent, 30% of the Moon is Illuminated
Oct 3
Waxing Crescent
Oct 5
First Quarter
Oct 13
Full
Oct 21
Last Quarter
Oct 27
New

Hourly Weather History & Observations

Time (CDT) Temp. Windchill Dew Point Humidity Pressure Visibility Wind Dir Wind Speed Gust Speed Precip Events Conditions
12:15 AM 48.2 °F - 46.4 °F 93% 30.00 in 2.5 mi NW 5.8 mph - N/A   Overcast
12:16 AM 48.2 °F - 46.4 °F 93% 30.00 in 3.0 mi NW 4.6 mph - N/A   Overcast
12:35 AM 48.2 °F - 46.4 °F 93% 30.01 in 3.0 mi NNW 3.5 mph - N/A   Overcast
12:55 AM 48.2 °F - 46.4 °F 93% 30.01 in 5.0 mi NW 4.6 mph - N/A   Overcast
1:15 AM 48.2 °F - 46.4 °F 93% 30.00 in 3.0 mi NW 5.8 mph - N/A Rain Light Rain
1:35 AM 46.4 °F 43.5 °F 46.4 °F 100% 30.01 in 5.0 mi NW 5.8 mph - N/A   Overcast
1:55 AM 46.4 °F 41.1 °F 46.4 °F 100% 30.03 in 2.5 mi WNW 11.5 mph - N/A Rain Rain
1:56 AM 46.4 °F 41.1 °F 46.4 °F 100% 30.03 in 2.0 mi WNW 11.5 mph - N/A Rain Rain
2:15 AM 46.4 °F 41.9 °F 46.4 °F 100% 30.04 in 4.0 mi WNW 9.2 mph - N/A   Light Drizzle
2:35 AM 46.4 °F 41.5 °F 46.4 °F 100% 30.05 in 10.0 mi West 10.4 mph - N/A   Overcast
2:36 AM 46.4 °F 41.5 °F 46.4 °F 100% 30.05 in 10.0 mi West 10.4 mph - N/A   Overcast
2:55 AM 46.4 °F 41.5 °F 46.4 °F 100% 30.05 in 2.0 mi WNW 10.4 mph - N/A Rain Light Rain
3:15 AM 46.4 °F 41.1 °F 46.4 °F 100% 30.05 in 10.0 mi WNW 11.5 mph - N/A   Overcast
3:35 AM 46.4 °F 39.8 °F 44.6 °F 93% 30.06 in 10.0 mi WNW 16.1 mph 19.6 mph N/A   Overcast
3:55 AM 46.4 °F 40.7 °F 44.6 °F 93% 30.06 in 10.0 mi WNW 12.7 mph 18.4 mph N/A   Mostly Cloudy
3:56 AM 46.4 °F 40.7 °F 44.6 °F 93% 30.06 in 10.0 mi WNW 12.7 mph 18.4 mph N/A   Mostly Cloudy
4:15 AM 46.4 °F 40.1 °F 44.6 °F 93% 30.06 in 10.0 mi WNW 15.0 mph - N/A   Mostly Cloudy
4:35 AM 46.4 °F 40.7 °F 44.6 °F 93% 30.07 in 10.0 mi WNW 12.7 mph - N/A   Overcast
4:36 AM 46.4 °F 40.4 °F 44.6 °F 93% 30.07 in 10.0 mi WNW 13.8 mph - N/A   Overcast
4:55 AM 46.4 °F 40.7 °F 44.6 °F 93% 30.08 in 10.0 mi WNW 12.7 mph - N/A   Overcast
5:15 AM 46.4 °F 41.1 °F 44.6 °F 93% 30.09 in 10.0 mi WNW 11.5 mph - N/A   Overcast
5:35 AM 46.4 °F 41.9 °F 44.6 °F 93% 30.10 in 10.0 mi NW 9.2 mph - N/A   Overcast
5:55 AM 46.4 °F 39.8 °F 44.6 °F 93% 30.10 in 5.0 mi WNW 16.1 mph - N/A   Drizzle
6:15 AM 44.6 °F 38.1 °F 42.8 °F 93% 30.12 in 10.0 mi WNW 13.8 mph - N/A   Overcast
6:16 AM 44.6 °F 38.1 °F 42.8 °F 93% 30.12 in 10.0 mi WNW 13.8 mph 18.4 mph N/A   Overcast
6:35 AM 44.6 °F 37.8 °F 42.8 °F 93% 30.13 in 10.0 mi WNW 15.0 mph 18.4 mph N/A   Overcast
6:55 AM 44.6 °F 39.2 °F 42.8 °F 93% 30.14 in 10.0 mi WNW 10.4 mph - N/A   Overcast
6:56 AM 44.6 °F 39.2 °F 42.8 °F 93% 30.14 in 10.0 mi WNW 10.4 mph - N/A   Overcast
7:15 AM 44.6 °F 38.4 °F 42.8 °F 93% 30.15 in 10.0 mi WNW 12.7 mph 17.3 mph N/A   Overcast
7:35 AM 44.6 °F 39.2 °F 42.8 °F 93% 30.16 in 10.0 mi WNW 10.4 mph 17.3 mph N/A   Overcast
7:36 AM 44.6 °F 39.2 °F 42.8 °F 93% 30.16 in 10.0 mi WNW 10.4 mph 17.3 mph N/A   Overcast
7:55 AM 44.6 °F 38.1 °F 42.8 °F 93% 30.17 in 10.0 mi West 13.8 mph - N/A   Overcast
8:15 AM 42.8 °F 34.3 °F 41.0 °F 93% 30.17 in 10.0 mi WNW 19.6 mph 23.0 mph N/A   Overcast
8:35 AM 42.8 °F 36.2 °F 41.0 °F 93% 30.18 in 10.0 mi WNW 12.7 mph - N/A   Overcast
8:36 AM 42.8 °F 35.8 °F 41.0 °F 93% 30.18 in 10.0 mi WNW 13.8 mph 19.6 mph N/A   Overcast
8:55 AM 42.8 °F 35.4 °F 39.2 °F 87% 30.19 in 10.0 mi WNW 15.0 mph - N/A   Overcast
9:15 AM 42.8 °F 36.6 °F 39.2 °F 87% 30.20 in 10.0 mi WNW 11.5 mph - N/A   Overcast
9:16 AM 42.8 °F 36.6 °F 39.2 °F 87% 30.20 in 10.0 mi WNW 11.5 mph - N/A   Overcast
9:35 AM 42.8 °F 34.8 °F 39.2 °F 87% 30.21 in 10.0 mi WNW 17.3 mph - N/A   Overcast
9:36 AM 42.8 °F 35.1 °F 39.2 °F 87% 30.21 in 10.0 mi NW 16.1 mph 19.6 mph N/A   Overcast
9:55 AM 42.8 °F 36.6 °F 39.2 °F 87% 30.22 in 10.0 mi NW 11.5 mph 20.7 mph N/A   Overcast
10:15 AM 44.6 °F 37.2 °F 39.2 °F 81% 30.22 in 10.0 mi NW 17.3 mph - N/A   Overcast
10:35 AM 44.6 °F 37.8 °F 39.2 °F 81% 30.23 in 10.0 mi NW 15.0 mph 23.0 mph N/A   Overcast
10:36 AM 44.6 °F 37.8 °F 39.2 °F 81% 30.23 in 10.0 mi NW 15.0 mph 23.0 mph N/A   Overcast
10:55 AM 44.6 °F 38.1 °F 37.4 °F 76% 30.24 in 10.0 mi NW 13.8 mph - N/A   Overcast
10:56 AM 44.6 °F 38.8 °F 37.4 °F 76% 30.24 in 10.0 mi NW 11.5 mph - N/A   Overcast
11:15 AM 44.6 °F 38.4 °F 37.4 °F 76% 30.24 in 10.0 mi WNW 12.7 mph 19.6 mph N/A   Overcast
11:16 AM 44.6 °F 38.1 °F 37.4 °F 76% 30.24 in 10.0 mi NW 13.8 mph 19.6 mph N/A   Overcast
11:35 AM 44.6 °F 38.8 °F 37.4 °F 76% 30.25 in 10.0 mi NW 11.5 mph 18.4 mph N/A   Overcast
11:55 AM 44.6 °F 37.4 °F 37.4 °F 76% 30.25 in 10.0 mi WNW 16.1 mph - N/A   Overcast
11:56 AM 44.6 °F 37.4 °F 37.4 °F 76% 30.25 in 10.0 mi WNW 16.1 mph - N/A   Overcast
12:15 PM 46.4 °F 40.4 °F 37.4 °F 71% 30.25 in 10.0 mi NW 13.8 mph 19.6 mph N/A   Overcast
12:35 PM 46.4 °F 40.7 °F 37.4 °F 71% 30.26 in 10.0 mi NW 12.7 mph 19.6 mph N/A   Overcast
12:36 PM 46.4 °F 41.1 °F 37.4 °F 71% 30.26 in 10.0 mi NW 11.5 mph 19.6 mph N/A   Overcast
12:55 PM 46.4 °F 39.8 °F 39.2 °F 76% 30.26 in 10.0 mi NW 16.1 mph - N/A   Mostly Cloudy
1:15 PM 46.4 °F 41.1 °F 37.4 °F 71% 30.26 in 10.0 mi WNW 11.5 mph 18.4 mph N/A   Mostly Cloudy
1:16 PM 46.4 °F 41.1 °F 39.2 °F 76% 30.26 in 10.0 mi WNW 11.5 mph 18.4 mph N/A   Mostly Cloudy
1:35 PM 46.4 °F 40.4 °F 37.4 °F 71% 30.27 in 10.0 mi WNW 13.8 mph - N/A   Overcast
1:55 PM 46.4 °F 40.1 °F 37.4 °F 71% 30.27 in 10.0 mi NW 15.0 mph - N/A   Overcast
2:15 PM 46.4 °F 41.1 °F 37.4 °F 71% 30.28 in 10.0 mi NW 11.5 mph - N/A   Overcast
2:16 PM 46.4 °F 40.4 °F 37.4 °F 71% 30.28 in 10.0 mi NW 13.8 mph - N/A   Overcast
2:35 PM 46.4 °F 41.1 °F 37.4 °F 71% 30.28 in 10.0 mi WNW 11.5 mph - N/A   Overcast
2:55 PM 46.4 °F 41.1 °F 37.4 °F 71% 30.29 in 10.0 mi WNW 11.5 mph - N/A   Overcast
3:15 PM 46.4 °F 40.7 °F 37.4 °F 71% 30.30 in 10.0 mi NW 12.7 mph - N/A   Overcast
3:35 PM 46.4 °F 40.7 °F 37.4 °F 71% 30.30 in 10.0 mi NW 12.7 mph 16.1 mph N/A   Overcast
3:55 PM 46.4 °F 41.9 °F 37.4 °F 71% 30.31 in 10.0 mi NW 9.2 mph 16.1 mph N/A   Overcast
4:15 PM 44.6 °F 39.2 °F 37.4 °F 76% 30.31 in 10.0 mi WNW 10.4 mph - N/A   Overcast
4:16 PM 44.6 °F 39.2 °F 37.4 °F 76% 30.31 in 10.0 mi WNW 10.4 mph - N/A   Overcast
4:35 PM 44.6 °F 39.2 °F 37.4 °F 76% 30.32 in 10.0 mi WNW 10.4 mph - N/A   Overcast
4:36 PM 44.6 °F 39.2 °F 37.4 °F 76% 30.32 in 10.0 mi NW 10.4 mph - N/A   Overcast
4:55 PM 46.4 °F 41.5 °F 37.4 °F 71% 30.32 in 10.0 mi NW 10.4 mph - N/A   Overcast
5:15 PM 44.6 °F 39.2 °F 37.4 °F 76% 30.33 in 10.0 mi NW 10.4 mph - N/A   Overcast
5:16 PM 44.6 °F 39.2 °F 37.4 °F 76% 30.33 in 10.0 mi NW 10.4 mph - N/A   Overcast
5:35 PM 44.6 °F 39.7 °F 37.4 °F 76% 30.33 in 10.0 mi NW 9.2 mph - N/A   Overcast
5:36 PM 44.6 °F 40.2 °F 37.4 °F 76% 30.33 in 10.0 mi NW 8.1 mph - N/A   Overcast
5:55 PM 44.6 °F 39.2 °F 37.4 °F 76% 30.34 in 10.0 mi NNW 10.4 mph - N/A   Overcast
6:15 PM 44.6 °F 39.2 °F 37.4 °F 76% 30.34 in 10.0 mi NW 10.4 mph - N/A   Overcast
6:35 PM 44.6 °F 38.8 °F 35.6 °F 71% 30.34 in 10.0 mi NNW 11.5 mph - N/A   Overcast
6:55 PM 44.6 °F 38.4 °F 35.6 °F 71% 30.35 in 10.0 mi NNW 12.7 mph 17.3 mph N/A   Overcast
7:15 PM 42.8 °F 37.5 °F 35.6 °F 76% 30.35 in 10.0 mi NNW 9.2 mph - N/A   Overcast
7:16 PM 42.8 °F 38.0 °F 35.6 °F 76% 30.35 in 10.0 mi NNW 8.1 mph - N/A   Overcast
7:35 PM 42.8 °F 38.0 °F 35.6 °F 76% 30.36 in 10.0 mi NNW 8.1 mph - N/A   Overcast
7:55 PM 42.8 °F 38.0 °F 35.6 °F 76% 30.37 in 10.0 mi NW 8.1 mph - N/A   Overcast
8:15 PM 42.8 °F 39.3 °F 35.6 °F 76% 30.37 in 10.0 mi NNW 5.8 mph - N/A   Overcast
8:35 PM 42.8 °F 38.6 °F 35.6 °F 76% 30.37 in 10.0 mi North 6.9 mph - N/A   Overcast
8:36 PM 42.8 °F 38.6 °F 35.6 °F 76% 30.37 in 10.0 mi North 6.9 mph - N/A   Overcast
8:55 PM 42.8 °F 38.6 °F 35.6 °F 76% 30.37 in 10.0 mi North 6.9 mph - N/A   Overcast
9:15 PM 42.8 °F 38.0 °F 35.6 °F 76% 30.37 in 10.0 mi North 8.1 mph - N/A   Overcast
9:35 PM 42.8 °F 40.1 °F 35.6 °F 76% 30.38 in 10.0 mi North 4.6 mph - N/A   Overcast
9:55 PM 42.8 °F 39.3 °F 35.6 °F 76% 30.38 in 10.0 mi NNW 5.8 mph - N/A   Overcast
10:15 PM 42.8 °F 40.1 °F 35.6 °F 76% 30.38 in 10.0 mi NNW 4.6 mph - N/A   Overcast
10:16 PM 42.8 °F 40.1 °F 35.6 °F 76% 30.38 in 10.0 mi NNW 4.6 mph - N/A   Overcast
10:35 PM 42.8 °F - 35.6 °F 76% 30.39 in 10.0 mi Calm Calm - N/A   Overcast
10:55 PM 42.8 °F 40.1 °F 37.4 °F 81% 30.39 in 10.0 mi NW 4.6 mph - N/A   Overcast
11:15 PM 42.8 °F 40.1 °F 37.4 °F 81% 30.39 in 10.0 mi NW 4.6 mph - N/A   Overcast
11:35 PM 42.8 °F 40.1 °F 37.4 °F 81% 30.39 in 10.0 mi NW 4.6 mph - N/A   Overcast
11:36 PM 42.8 °F 39.3 °F 37.4 °F 81% 30.39 in 10.0 mi NW 5.8 mph - N/A   Overcast
11:55 PM 42.8 °F 40.1 °F 37.4 °F 81% 30.39 in 10.0 mi NNW 4.6 mph - N/A   Overcast
11:56 PM 42.8 °F 40.1 °F 37.4 °F 81% 30.39 in 10.0 mi NW 4.6 mph - N/A   Overcast